TimeEST,TemperatureF,Dew PointF,Humidity,Sea Level PressureIn,VisibilityMPH,Wind Direction,Wind SpeedMPH,Gust SpeedMPH,PrecipitationIn,Events,Conditions,WindDirDegrees,DateUTC
12:53 AM,43.0,18.0,37,30.44,10.0,NE,4.6,-,N/A,,Overcast,50,2014-01-09 05:53:00
1:53 AM,43.0,18.0,37,30.44,10.0,ENE,3.5,-,N/A,,Overcast,60,2014-01-09 06:53:00
2:53 AM,43.0,19.9,40,30.42,10.0,ENE,4.6,-,N/A,,Overcast,60,2014-01-09 07:53:00
3:53 AM,43.0,21.9,43,30.42,10.0,NE,6.9,-,N/A,,Overcast,50,2014-01-09 08:53:00
4:53 AM,43.0,21.9,43,30.43,10.0,NNE,5.8,-,N/A,,Overcast,30,2014-01-09 09:53:00
5:53 AM,43.0,24.1,47,30.42,10.0,ENE,6.9,-,N/A,,Overcast,60,2014-01-09 10:53:00
6:43 AM,44.6,24.8,46,30.42,10.0,ENE,8.1,-,N/A,,Overcast,60,2014-01-09 11:43:00
6:53 AM,44.1,24.1,45,30.43,10.0,ENE,9.2,-,N/A,,Overcast,60,2014-01-09 11:53:00
7:22 AM,44.6,24.8,46,30.42,10.0,NE,9.2,-,N/A,,Overcast,50,2014-01-09 12:22:00
7:53 AM,44.1,25.0,47,30.44,10.0,ENE,9.2,-,N/A,,Overcast,60,2014-01-09 12:53:00
8:53 AM,45.0,27.0,49,30.45,10.0,ENE,8.1,-,N/A,,Overcast,60,2014-01-09 13:53:00
9:53 AM,46.9,28.9,50,30.46,10.0,NE,11.5,-,N/A,,Overcast,50,2014-01-09 14:53:00
10:27 AM,48.2,30.2,50,30.45,10.0,NE,9.2,-,N/A,,Overcast,50,2014-01-09 15:27:00
10:53 AM,48.9,33.1,54,30.46,10.0,East,9.2,-,N/A,,Overcast,80,2014-01-09 15:53:00
11:53 AM,53.1,35.1,50,30.43,10.0,ENE,10.4,-,N/A,,Overcast,60,2014-01-09 16:53:00
12:53 PM,54.0,39.0,57,30.39,10.0,East,5.8,-,N/A,,Overcast,90,2014-01-09 17:53:00
1:46 PM,55.4,39.2,54,30.35,10.0,NE,9.2,-,N/A,,Overcast,50,2014-01-09 18:46:00
1:53 PM,55.9,41.0,57,30.35,10.0,ENE,6.9,-,N/A,,Overcast,70,2014-01-09 18:53:00
2:53 PM,57.0,42.1,57,30.33,10.0,NE,8.1,-,N/A,,Overcast,40,2014-01-09 19:53:00
3:53 PM,57.0,42.1,57,30.33,10.0,ENE,9.2,-,N/A,,Overcast,60,2014-01-09 20:53:00
4:53 PM,57.9,44.1,60,30.32,10.0,NE,6.9,-,N/A,,Overcast,40,2014-01-09 21:53:00
6:53 PM,54.0,48.9,83,30.34,6.0,NE,6.9,-,0.00,Rain,Light Rain,50,2014-01-09 23:53:00
7:53 PM,53.1,51.1,93,30.35,8.0,ENE,6.9,-,0.00,Rain,Light Rain,60,2014-01-10 00:53:00
8:53 PM,53.1,50.0,89,30.36,10.0,NE,10.4,17.3,0.00,,Overcast,50,2014-01-10 01:53:00
9:53 PM,52.0,48.9,89,30.36,6.0,ENE,10.4,-,0.00,Rain,Light Rain,60,2014-01-10 02:53:00
10:19 PM,51.8,50.0,94,30.35,6.0,ENE,8.1,-,0.00,Rain,Light Rain,60,2014-01-10 03:19:00
10:53 PM,51.1,50.0,96,30.35,6.0,NE,5.8,-,0.01,Rain,Light Rain,40,2014-01-10 03:53:00
11:53 PM,51.1,48.9,92,30.32,10.0,NE,9.2,-,0.00,,Overcast,40,2014-01-10 04:53:00